Location: Paddlesworth
(51.1000°N, 1.1333°E)
Time: 06:46:46
(UTC+00:00)

MTI - Pass Details

Date: 11 May 2021
Orbit: 381 x 388 km, 97.5° (Epoch: 20 June)

Event Time Altitude Azimuth Distance (km) Brightness Sun altitude
Rises 23:17:44 0° 17° (NNE) 2,274 8.6 -20.4°
Reaches altitude 10° 23:19:45 10° 23° (NNE) 1,415 7.3 -20.4°
Enters shadow 23:22:06 43° 59° (ENE) 556 4.5 -20.5°
